Location: ??
(34.9170°N, 135.5016°E)
Time: 23:54:39
(UTC+00:00)

RS-15 - Pass Details

Date: 24 April 2021
Orbit: 1888 x 2157 km, 64.8° (Epoch: 12 May)

Event Time Altitude Azimuth Distance (km) Brightness Sun altitude
Rises 10:15:19 0° 240° (WSW) 5,278 10.9 -8.1°
Reaches altitude 10° 10:18:54 10° 248° (WSW) 4,302 10.5 -8.8°
Maximum altitude 10:28:56 38° 314° (NW) 2,722 9.5 -10.7°
Drops below altitude 10° 10:39:28 10° 20° (NNE) 4,495 10.0 -12.7°
Sets 10:43:22 0° 28° (NNE) 5,536 10.4 -13.4°
